Regional Weather Roundup
Issued by NWS

Home | Current Version | Previous Version | Text Only | Print | Product List | Glossary On
Versions: 1 2 3 4 5 6 7 8 9 10 11 12 13 14 15 16 17 18 19 20 21 22 23 24 25 26 27 28 29 30 31 32 33 34 35 36 37 38 39 40 41 42 43 44 45 46 47 48 49 50
000
ASUS45 KABQ 251410
RWRNM
NEW MEXICO REGIONAL WEATHER ROUNDUP
NATIONAL WEATHER SERVICE ALBUQUERQUE NM
800 AM MDT SUN SEP 25 2016

NOTE: "FAIR" MEANS FEW OR NO CLOUDS BELOW 12,000 FEET AGL WITH NO
       SIGNIFICANT WEATHER OR OBSTRUCTIONS TO VISION.

      THIS PRODUCT IS RELEASED AS TWO VERSIONS.  ONE VERSION NEAR
      THE TOP OF THE HOUR CONTAINING PRELIMINARY DATA FROM ALBUQUERQUE
      AND OTHER STATIONS.  A FINAL VERSION WITH ADDITIONAL DATA IS
      ISSUED ABOUT 10 MINUTES AFTER THE HOUR.

NMZ501-503-504-510>518-251500-
NORTHWEST PLATEAU/NORTHCENTRAL MOUNTAINS

CITY           SKY/WX    TMP DP  RH WIND       PRES   REMARKS
FARMINGTON     FAIR      40  33  76 N8        30.35R WCI  34
LOS ALAMOS     FAIR      49  10  20 N18G26    30.40R
SANTA FE       FAIR      49  30  48 N14G22    30.36R
TAOS           FAIR      43  27  52 N9        30.44R
ANGEL FIRE     FAIR      37  30  77 N3        30.49R

$$
NMZ402-403-502-505>509-251500-
WESTCENTRAL MOUNTAINS/SOUTHWEST MOUNTAINS

CITY           SKY/WX    TMP DP  RH WIND       PRES   REMARKS
GALLUP         FAIR      45  34  65 E9        30.36R
SILVER CITY    FAIR      56  32  40 N5        30.21R

$$
NMZ407-409-411-412-251500-
SOUTHERN DESERTS

CITY           SKY/WX    TMP DP  RH WIND       PRES   REMARKS
DEMING         FAIR      66  32  28 NE21G29   30.14R
LAS CRUCES     FAIR      60  31  33 N16G22    30.16R
HOLLOMAN AFB   FAIR      61  33  35 VRB1      30.12R
ALAMOGORDO     FAIR      57  32  38 SW5       30.14R
T OR C         FAIR      56  31  38 N5        30.21R

$$
NMZ519>523-251500-
CENTRAL VALLEYS/CENTRAL HIGHLANDS

CITY           SKY/WX    TMP DP  RH WIND       PRES   REMARKS
ALBUQUERQUE    FAIR      52  34  50 NW6       30.31R
DOUBLE EAGLE   MOSUNNY   48  34  57 N10       30.34R
MORIARTY ARPT  FAIR      40  33  75 N3        30.37R
CLINES CORNERS FAIR      49  30  48 NE20G31   30.37R
BELEN          NOT AVBL
SOCORRO        FAIR      51  32  48 N8        30.29R

$$
NMZ524>526-539-540-251500-
SOUTHCENTRAL MOUNTAINS

CITY           SKY/WX    TMP DP  RH WIND       PRES   REMARKS
RUIDOSO        FAIR      50  32  50 NW8       30.33R

$$
NMZ527>531-251500-
NORTHEAST HIGHLANDS/NORTHEAST PLAINS

CITY           SKY/WX    TMP DP  RH WIND       PRES   REMARKS
LAS VEGAS      FAIR      47  32  56 N16       30.41R
RATON          FAIR      49  31  49 N16G26    30.42R
CLAYTON        FAIR      53  39  59 N23G29    30.37R

$$
NMZ532>537-251500-
EASTCENTRAL PLAINS

CITY           SKY/WX    TMP DP  RH WIND       PRES   REMARKS
TUCUMCARI      CLOUDY    59  37  44 NE22G30   30.31R
CANNON AFB     CLOUDY    57  42  57 NE24G32   30.23R
CLOVIS AIRPORT CLOUDY    57  43  58 N23       30.24R

$$
NMZ028-029-538-251500-
SOUTHEAST PLAINS

CITY           SKY/WX    TMP DP  RH WIND       PRES   REMARKS
ROSWELL        FAIR      61  37  41 N18       30.17R
ARTESIA        FAIR      63  39  42 N18       30.16R
CARLSBAD       PTSUNNY   63  41  44 NW14      30.13R
HOBBS          PTSUNNY   64  64 100 CALM      30.14R


$$



USA.gov is the U.S. government's official web portal to all federal, state and local government web resources and services.